Regional Weather Roundup
Issued by NWS

Home | Current Version | Previous Version | Text Only | Print | Product List | Glossary Off
Versions: 1 2 3 4 5 6 7 8 9 10 11 12 13 14 15 16 17 18 19 20 21 22 23 24 25 26 27 28 29 30 31 32 33 34 35 36 37 38 39 40 41 42 43 44 45 46 47 48 49 50

000
ASUS44 KMEG 220210
RWRTN
TENNESSEE HOURLY STATE WEATHER ROUNDUP
NATIONAL WEATHER SERVICE MEMPHIS TN
900 PM CDT MON JUL 21 2014

TNZ002-004-019-021-049-052-054-088>092-220300-
WEST TENNESSEE

CITY           SKY/WX    TMP DP  RH WIND       PRES   REMARKS
MEMPHIS INTL   PTCLDY    78  65  63 N3        30.05S
NWS MEMPHIS      N/A     73 N/A N/A MISG        N/A
JACKSON        CLEAR     73  68  84 CALM      30.05R
DYERSBURG      CLEAR     73  61  64 CALM      30.06S
UNION CITY     CLEAR     75  70  83 CALM      30.05S
PARIS          CLEAR     71  67  87 CALM      30.07S
LEXINGTON      CLEAR     73  70  88 CALM      30.05R
SAVANNAH       CLEAR     75  75 100 CALM      30.05S
$$

TNZ008-025-027-028-033-062-065-066-220300-
NORTH MIDDLE TENNESSEE

CITY           SKY/WX    TMP DP  RH WIND       PRES   REMARKS
NASHVILLE      PTCLDY    80  70  71 CALM      30.05S
DICKSON        CLEAR     75  70  83 CALM      30.06S
PORTLAND       CLEAR     77  70  78 CALM      30.06R
CLARKSVILLE    CLEAR     80  63  55 NE3       30.05R
SMYRNA         LGT RAIN  78  73  84 CALM      30.06R
MURFREESBORO   CLEAR     80  69  69 CALM      30.05R
COOKEVILLE     CLEAR     75  73  94 CALM      30.09R
LIVINGSTON     MOCLDY    74  70  87 CALM      30.10
GALLATIN       CLEAR     80  72  76 CALM      30.06S
CROSSVILLE     MOCLDY    73  69  87 CALM      30.14R
$$

TNZ061-075-076-078-094-096-097-220300-
SOUTH MIDDLE TENNESSEE

CITY           SKY/WX    TMP DP  RH WIND       PRES   REMARKS
LEWISBURG      CLEAR     75  70  85 CALM      30.05S
FAYETTEVILLE   CLEAR     73  70  88 E8        30.07R
TULLAHOMA      CLEAR     75  72  88 CALM      30.09R
WINCHESTER     PTCLDY    73  72  94 CALM      30.08S
MCMINNVILLE    CLEAR     75  75 100 CALM      30.09R
COLUMBIA       CLEAR     79  73  83 CALM      30.05R
SHELBYVILLE    CLEAR     77  73  88 SE3       30.07R
$$

TNZ017-018-042-046-047-220300-
NORTHEAST TENNESSEE

CITY           SKY/WX    TMP DP  RH WIND       PRES   REMARKS
TRI CITIES     MOCLDY    75  64  68 CALM      30.16R
ELIZABETHTON   CLEAR     73  64  73 E8        30.18R
$$

TNZ012-013-036-069-073-074-220300-
CENTRAL EAST TENNESSEE

CITY           SKY/WX    TMP DP  RH WIND       PRES   REMARKS
KNOXVILLE      CLOUDY    76  71  85 SW5       30.08R
OAK RIDGE      CLOUDY    79  73  82 CALM      30.10R
GATLINBURG     PTCLDY    77  70  78 VRB3      30.10R
MORRISTOWN     PTCLDY    75  70  83 E5        30.14R
$$

TNZ083-085-099-220300-
SOUTHEAST TENNESSEE

CITY           SKY/WX    TMP DP  RH WIND       PRES   REMARKS
CHATTANOOGA    CLOUDY    80  70  71 E5        30.08R
$$

SKY/WX REPORTED AS FAIR MEANS FEW OR NO CLOUDS BELOW
12 THOUSAND FEET.




USA.gov is the U.S. government's official web portal to all federal, state and local government web resources and services.